Showing default

STRAND 1, 39090

Orbit data source: Space-Track

STRAND 1, 39090 is a UK payload satellite in SSO that was launched on Mon, 25 Feb 2013 UTC via a PSLV launch vehicle from the Sirharikota (SRI). Payload-class satellites include a variety of spacecraft equipped with specific instruments for various scientific and technological missions. These include communications satellites like Starlink; space stations such as the ISS; scientific satellites like the Hubble; Earth observation satellites from companies like Planet Labs, Umbra, and HawkEye 360; GPS; miniature CubeSats for education and research; and military/defense satellites.

Loading next visibility...
Identifier
39090, 2013-009E
Orbit
SSO
Country
Flag of UKUK
Related business
Manufacturer
SSTL (Astrium)
Mission
Operational Commercial Technology
Bus & Motor
CUBESAT 3U, Unknown motor
Mass
6 kg wet, 6 kg dry
Launch date (UTC)
2013-02-25 (13 years ago)
Launch vehicle
PSLV
Launch site
Sirharikota (SRI)
Object type
Payload
Rocket body
Debris
Shape & HBR
Box, 0.1 m
Radar Cross Section
0.075 m², Small (<0.1 m²)

Expand to show TLE details & history
Last TLE update: 22 hours ago

TLE from 22 hours ago
0 STRAND 1
1 39090U 13009E   26094.46470371  .00000556  00000-0  20152-3 0  9996
2 39090  98.3906 276.5178 0009853  91.8174 268.4142 14.37118586686471
Epoch: 2026-04-04T11:09Z
TLE epoch observation values (Epoch: 2026-04-04T11:09:10.400Z)
Latitude
0.00002°
Longitude
-83.55964°
Altitude
771.184 km
Speed
7.468 km/s
True Right ascension
18h 26m 04s
True Declination
0° 00' 00"
Sunlit
Object was in daylight at epoch
Visualization orbit readout
Latitude
Unknown
Longitude
Unknown
Altitude
Unknown
Speed
Unknown
Apparent Right ascension
Unknown
Apparent Declination
Unknown
Sunlit
N/A
Visualization observer readout
Local Sidereal Time
14:59:19
Azimuth
Unknown
Elevation
Unknown
Doppler factor
Unknown
Orbital elements
Apogee altitude
772.193 km
Perigee altitude
758.117 km
Semi-major axis
7,143.292 km
Eccentricity
0.00099
Inclination
98.3906°
RAAN
276.5178°
Arg. of periapsis
91.8174°
True anomaly
268.30134°
Mean anomaly
268.4142°
Eccentric anomaly
268.35777°
Mean motion
3.59497 °/min
Orbital period
100.14 mins
BSTAR
0.00020152
Loading maneuver chart data...
Computing Atmospheric mass density...
Loading historical data...
Loading historical data...
Loading historical data...
Loading historical data...
Loading historical data...
Loading historical data...
Loading historical data...

Documentation

Showing up to 5 results
|